CAPE
5 5 5 4 5 5 6 5 5 5 6 4 5 6 6 6 6 5 4 2 3 4 4 4 3 3 4 4 3 3 5 0 0 0 0 0 0 0 0 0 0 0 6 0 2 0 0 0 0 396 509 442 347 336 94 321 486 687 670 415 546 974 946 825 739 638 732 848 734 779 880 838 666 855 860 586 539 509 491 489 417 417 593 656 566 520 566 643
5 4 6 6 5 5 3 3 4 4 4 5 4 5 5 5 4 5 4 4 4 3 3 3 3 4 4 4 3 5 0 0 0 0 0 0 0 0 0 0 0 0 0 0 0 0 0 0 186 560 484 395 342 357 415 616 622 682 721 497 532 987 1034 940 920 855 899 968 763 986 955 944 783 897 636 483 440 462 402 401 410 464 568 606 644 627 599 626
5 5 6 5 5 2 3 4 3 3 2 3 3 3 4 3 3 4 3 4 4 4 3 3 3 3 3 4 5 6 0 0 0 0 0 0 0 0 0 0 0 67 0 0 0 0 0 0 107 484 476 453 401 344 348 494 832 662 869 812 841 697 1360 1229 873 1101 1402 999 728 1000 923 967 894 897 852 389 400 399 279 187 327 318 368 467 548 594 559 562
4 4 4 4 3 3 3 4 5 5 5 4 5 4 4 3 4 4 4 4 4 4 4 4 4 3 4 4 2 5 0 0 0 0 0 0 0 0 0 7 0 75 0 0 0 0 0 0 223 381 415 327 412 279 400 892 563 951 699 812 985 1106 1079 1424 1052 1295 1172 1133 1039 1063 834 963 1027 1131 956 512 351 493 516 270 271 258 311 444 504 527 484 499
3 3 3 3 3 4 4 4 5 5 4 5 4 4 5 5 4 4 4 3 4 4 4 5 4 3 5 6 4 0 0 0 0 0 0 154 0 0 0 0 15 0 0 0 0 0 0 0 0 391 443 356 376 312 349 598 430 976 906 942 985 1064 1462 1679 1415 1363 1114 1257 1287 1030 786 967 1221 1177 677 426 457 422 472 390 338 372 384 465 495 492 546 479
2 3 4 4 4 5 6 5 5 4 4 4 4 4 4 3 3 3 4 4 3 4 5 6 5 4 3 5 1 1 0 0 0 0 24 272 0 0 0 187 0 0 0 0 0 0 0 0 172 398 394 246 297 306 348 329 725 577 699 928 790 723 1830 1609 1363 1451 1229 1334 1120 895 986 1096 1259 1022 662 702 899 746 588 506 411 383 435 554 550 556 534 478
3 3 5 5 4 5 5 5 4 4 4 3 4 3 3 3 4 4 3 4 4 4 4 4 6 4 2 0 0 0 0 0 0 0 1372 61 0 2 444 53 0 0 0 0 0 0 0 0 226 430 400 182 270 231 190 616 656 791 759 463 834 730 1009 1631 1282 1482 1333 1450 1340 1273 1047 1305 1023 948 819 897 621 592 561 541 487 516 525 550 575 569 505 516
4 4 3 4 4 4 4 4 4 3 3 3 3 3 3 4 4 5 4 5 4 4 4 4 5 3 0 0 0 0 0 0 0 0 730 0 2 127 390 0 0 0 0 0 0 0 0 0 316 459 309 241 57 25 15 292 810 640 345 822 1047 1050 1130 1311 1212 1347 1551 1488 1215 1214 1252 1277 1138 991 858 977 785 586 569 556 368 499 518 608 636 613 582 565
3 3 4 3 4 4 4 4 4 3 4 4 4 3 3 4 3 4 4 4 4 4 4 4 2 4 4 1 0 0 0 0 0 409 5 0 12 0 0 0 0 0 0 0 0 0 0 0 296 478 316 1 0 168 0 103 786 749 659 1135 1240 995 986 1189 1334 1355 1426 1469 1303 1233 1193 1104 1220 930 1083 895 728 631 608 607 490 496 461 593 668 618 587 521
2 3 3 3 2 4 3 3 4 4 4 5 4 3 4 3 3 3 4 4 4 4 4 5 1 1 0 0 0 0 0 0 0 59 0 0 0 0 0 0 0 0 0 0 0 0 0 130 324 426 207 0 0 0 0 0 267 790 1199 1242 1201 950 1023 993 1289 1255 1347 1235 1240 1214 1077 1045 906 1465 600 741 752 670 625 609 523 472 501 525 646 676 646 530
2 2 3 3 2 2 3 3 3 4 4 3 4 4 3 4 4 4 3 3 3 4 3 4 5 0 0 0 0 0 0 0 0 0 0 0 0 0 0 0 0 0 0 0 0 0 0 0 64 258 73 0 0 0 0 23 683 1312 1182 1051 858 1044 1081 1041 1319 1245 1167 1165 1407 1285 1056 930 834 958 613 480 710 693 676 589 485 453 494 583 643 692 714 609
2 2 3 2 2 3 3 3 3 3 2 3 3 3 3 3 3 5 4 4 3 3 4 4 1 2 0 0 0 0 0 0 0 0 0 0 0 0 0 0 0 0 0 0 0 0 0 0 303 53 34 0 0 0 0 354 1051 1268 1076 1078 878 829 923 1035 1414 1384 1326 1056 1200 949 941 994 873 993 751 595 652 761 678 530 498 487 506 614 687 610 692 703
2 2 2 3 2 3 4 3 2 2 3 3 3 4 3 4 3 3 4 2 3 2 2 1 3 0 0 0 0 0 0 0 0 0 0 0 0 0 0 0 0 0 0 0 0 0 0 0 374 100 0 0 0 0 0 0 1135 984 940 1018 849 832 920 871 876 1302 1177 1311 1222 1488 556 776 983 716 570 610 732 719 686 557 507 511 550 578 665 620 552 696
2 2 2 2 2 2 3 3 2 3 4 3 3 3 2 2 3 3 3 2 1 2 0 4 0 0 0 0 0 0 0 0 0 0 0 0 0 0 0 0 0 0 0 0 0 0 0 0 196 283 0 0 0 0 0 2 840 706 976 867 940 873 866 753 1070 1071 1191 877 1192 1084 1018 1150 1085 744 460 410 753 744 566 474 534 527 481 557 503 638 603 568
2 2 2 3 2 3 2 3 2 2 2 2 2 2 3 1 2 1 2 0 1 3 2 1 0 0 0 0 0 0 0 0 0 0 0 0 0 0 0 0 0 0 0 0 0 0 0 0 0 102 0 0 0 0 19 592 755 865 628 762 781 560 850 808 873 897 1029 752 722 597 627 1248 1062 692 770 517 749 798 657 492 377 474 478 495 582 596 550 605
2 2 2 2 2 2 2 4 6 4 2 2 1 1 2 1 0 0 0 0 4 2 2 0 0 0 0 0 0 0 0 0 0 0 0 0 0 0 0 0 0 0 0 0 0 0 0 0 0 0 0 0 0 0 321 619 860 799 611 840 710 763 743 867 679 869 840 776 660 732 1076 816 1066 548 843 473 650 732 655 438 364 533 541 546 598 589 584 602
3 3 4 2 2 2 2 4 5 4 3 2 0 1 0 0 0 0 0 3 4 4 0 0 0 0 0 0 0 0 0 0 0 0 0 0 0 0 0 0 0 0 0 0 0 0 0 0 0 0 0 0 0 44 260 433 610 870 282 839 738 786 822 849 793 832 864 712 723 680 1153 1056 1009 863 978 451 426 730 694 461 461 613 689 739 717 665 647 647
3 3 3 2 2 2 2 4 4 4 1 0 0 0 0 0 0 2 2 1 2 1 0 0 0 0 0 0 0 0 0 0 0 0 0 0 0 0 0 0 0 0 0 0 0 0 0 0 0 0 0 0 0 0 2 27 473 781 355 693 656 718 758 865 867 941 815 668 734 834 947 1043 855 910 931 425 433 761 735 624 666 723 658 660 634 705 724 709
1 2 2 2 2 1 2 2 4 3 0 0 0 0 0 0 0 0 0 0 0 0 0 0 0 0 0 0 0 0 0 0 0 0 0 0 0 0 0 0 0 0 0 0 0 0 0 0 0 0 0 0 0 0 0 0 267 697 372 674 834 788 788 854 888 924 991 734 832 739 1145 1033 823 990 1045 634 361 581 710 793 715 617 592 620 605 582 637 671
1 1 2 1 1 2 1 2 3 3 0 0 0 0 0 0 0 0 0 0 0 0 0 0 0 0 0 0 0 0 0 0 0 0 0 0 0 0 0 0 0 0 0 0 0 0 0 0 0 0 0 0 0 0 0 0 8 127 385 383 687 858 863 748 1082 1064 1076 754 753 687 912 1037 924 841 927 752 474 330 474 654 657 578 608 546 461 461 513 566
2 2 2 1 1 2 1 2 2 1 0 0 0 0 0 0 0 0 0 0 0 0 0 0 0 0 0 0 0 0 0 0 0 0 0 0 0 0 0 0 0 0 0 0 0 0 0 0 0 0 0 0 0 0 0 0 13 383 322 361 622 571 808 909 1201 1056 1192 1000 863 627 843 1090 1117 985 1032 933 542 318 384 567 575 522 506 515 464 369 384 458
1 2 2 1 1 1 1 1 1 2 1 0 0 0 0 0 0 0 0 0 0 0 0 0 0 0 0 0 0 0 0 0 0 0 0 0 0 0 0 0 0 0 0 0 0 0 0 0 0 0 0 0 0 0 0 0 0 0 173 151 82 610 1039 1095 1193 1145 1006 895 941 694 768 900 1153 1129 1098 867 730 593 316 516 463 493 454 509 426 362 352 323
1 2 1 2 1 1 0 2 1 0 0 0 0 0 0 0 0 0 0 0 0 0 0 0 0 0 0 0 0 0 0 0 0 0 0 0 0 0 0 0 0 0 0 0 0 0 0 0 0 0 0 0 0 0 0 0 0 0 0 4 53 740 641 798 914 876 971 582 779 736 920 884 1167 1087 783 872 792 1075 1345 634 337 415 428 474 426 379 346 299
1 0 2 1 1 0 0 0 1 0 0 0 0 0 0 0 0 0 0 0 0 0 0 0 0 0 0 0 0 0 0 0 0 0 0 0 0 0 0 0 0 0 0 0 0 0 0 0 0 0 0 0 0 0 0 0 1 0 0 0 192 896 776 907 896 766 857 553 899 781 691 556 663 746 738 714 862 928 866 820 931 507 412 478 528 459 358 300
1 0 1 2 0 0 0 0 0 0 0 0 0 0 0 0 0 0 0 0 0 0 0 0 0 0 0 0 0 0 0 0 0 0 0 0 0 0 0 0 0 0 0 0 0 0 0 0 0 0 0 0 0 0 0 0 0 0 0 9 120 666 741 1051 804 679 728 713 752 630 476 667 601 796 801 769 753 810 886 636 515 462 409 412 449 441 359 306
0 1 1 0 1 0 0 0 0 0 0 0 0 0 0 0 0 0 0 0 0 0 0 0 0 0 0 0 0 0 0 0 0 0 0 0 4 0 0 0 0 0 0 0 0 0 0 0 0 0 0 0 0 0 0 0 0 0 3 2 6 528 915 997 875 872 746 670 567 640 580 448 588 649 869 767 776 743 875 796 557 623 567 280 384 473 338 265
1 0 0 0 0 0 0 0 0 0 0 0 0 0 0 0 0 0 0 0 0 0 0 0 0 0 0 0 0 0 0 0 0 0 0 0 0 0 0 0 0 0 0 0 0 0 0 0 0 0 0 0 0 0 0 0 0 0 0 4 7 686 1064 1057 959 856 927 703 763 699 462 506 532 581 768 913 729 772 839 827 759 633 554 350 308 362 330 190
0 0 0 0 0 0 0 0 0 0 0 0 0 0 0 0 0 0 0 0 0 0 0 0 0 0 0 0 0 0 0 0 0 0 0 0 0 0 0 0 0 0 0 0 0 0 0 0 0 0 0 0 0 0 0 0 0 0 0 10 510 392 973 1069 942 757 809 780 1028 647 462 240 340 535 544 864 739 772 717 745 792 779 596 542 470 306 248 121
0 0 0 1 0 0 1 0 0 0 0 0 0 0 0 0 0 0 0 0 0 0 0 0 0 0 0 0 0 0 0 0 0 0 0 0 0 0 0 0 0 0 0 0 0 0 0 0 0 0 0 0 0 0 0 0 0 0 0 133 1 67 718 778 742 741 803 552 647 597 567 370 412 321 546 764 792 769 676 759 619 786 718 650 569 399 229 85
0 0 1 1 1 0 0 0 0 0 0 0 0 0 0 0 0 0 0 0 0 0 0 0 0 0 0 0 0 0 0 0 0 0 0 0 0 0 0 0 0 0 0 0 0 0 0 0 0 0 0 0 0 0 0 0 0 0 0 159 293 387 650 576 750 862 663 401 242 742 535 326 390 619 596 593 674 790 757 759 846 797 785 745 685 596 355 79
0 0 0 2 0 0 0 0 0 0 0 0 0 0 0 0 0 0 0 0 0 0 0 0 0 0 0 0 0 0 0 0 0 0 0 0 0 0 0 0 0 0 0 0 0 0 0 0 0 0 0 0 0 0 0 0 0 0 0 104 129 369 505 512 460 462 504 166 322 613 634 419 218 402 586 858 685 735 826 859 773 808 740 807 763 663 536 225
0 0 0 0 0 0 0 0 0 0 0 0 0 0 0 3 0 0 0 0 0 0 0 0 0 0 0 0 0 0 0 0 0 0 0 0 0 0 0 0 0 0 0 0 0 0 0 0 0 0 0 0 0 0 0 0 0 0 0 8 5 343 366 445 261 405 66 250 35 268 652 367 358 429 158 444 777 668 875 929 874 743 686 780 800 824 790 520
0 0 0 0 0 0 0 0 0 0 0 0 0 0 0 0 0 0 0 0 0 0 0 0 0 0 0 0 0 0 0 0 0 0 0 0 0 0 0 0 0 0 0 0 0 0 0 0 0 0 0 0 0 0 0 0 0 0 19 0 28 286 107 125 108 90 70 38 25 362 670 501 646 385 199 298 455 573 526 715 792 803 790 780 685 780 930 685
0 0 0 0 0 0 0 0 0 0 0 0 0 0 0 0 0 146 0 0 0 0 0 0 0 0 0 0 0 0 0 0 0 0 0 0 0 0 0 0 0 0 0 0 0 0 0 0 0 0 0 0 0 0 0 0 0 0 0 120 5 136 52 77 152 83 59 307 246 617 444 745 534 622 296 249 192 252 500 549 642 768 803 834 691 730 833 977
0 0 0 0 0 0 0 0 0 0 0 0 0 0 0 0 0 0 0 0 0 0 0 0 0 0 0 0 0 0 0 0 0 0 0 0 0 0 0 0 0 0 0 0 0 0 0 0 0 0 0 0 0 0 0 0 0 0 0 13 61 51 171 84 334 341 345 328 305 419 484 308 574 600 414 494 650 596 389 536 741 791 858 878 815 665 688 918
0 0 0 0 0 0 0 0 0 0 0 0 0 0 0 0 0 0 0 0 0 0 0 0 0 0 0 0 0 0 0 0 0 0 0 0 0 0 0 0 0 0 0 0 0 0 0 0 0 0 0 0 0 0 0 0 0 0 0 0 0 156 202 155 179 145 179 140 345 355 256 299 250 247 593 798 875 1022 653 556 887 930 930 972 827 820 796 1006
0 0 0 0 0 0 0 0 0 0 0 0 0 0 0 0 0 0 16 0 0 0 0 0 0 0 0 0 0 0 0 0 0 0 0 0 0 0 0 0 0 0 0 0 0 0 0 0 0 0 0 0 0 0 0 0 0 0 0 0 0 1 77 54 172 319 295 125 172 120 196 535 160 330 818 922 1090 905 1172 868 1003 1306 1149 978 958 1035 1225 1387
0 1 303 0 0 0 0 0 0 0 0 3 6 102 2 0 0 0 0 0 0 0 0 0 0 0 0 0 0 0 0 0 0 0 0 0 0 0 0 0 0 0 0 0 0 0 0 0 0 0 0 0 0 0 0 0 0 0 0 0 0 0 0 18 188 182 175 132 126 181 333 511 486 425 552 990 933 895 1035 1196 1368 1303 1150 964 1103 1682 1906 1745
0 0 0 0 0 0 0 0 0 0 0 0 0 122 0 0 0 0 0 0 0 0 0 0 0 0 0 0 0 0 0 0 0 0 0 0 0 0 0 0 0 0 0 0 0 0 0 0 0 0 0 0 0 0 0 0 0 0 0 0 0 0 0 122 13 314 57 350 132 385 291 434 518 697 688 1022 985 902 931 1114 1277 1276 1160 1154 1237 1557 1691 1587
0 0 0 0 0 0 0 0 0 0 0 0 5 0 0 0 0 0 0 0 0 0 0 0 0 0 0 0 0 0 0 0 0 0 0 0 0 0 0 0 0 0 0 0 0 0 0 0 0 0 0 0 0 0 0 0 0 0 0 0 0 0 0 59 28 158 47 296 223 332 379 354 651 195 733 1149 980 860 947 1128 1256 1177 1294 1405 1606 1590 1562 1594
0 0 0 0 0 0 0 0 0 0 0 0 0 0 0 0 0 0 0 0 0 0 0 0 0 0 0 0 0 0 0 0 0 0 0 0 0 0 0 0 0 0 0 0 0 0 0 0 0 0 0 0 0 0 0 0 0 0 0 0 0 0 3 0 14 1 176 128 221 124 122 688 362 265 591 764 747 950 962 1010 1002 1000 1046 1026 1180 1218 1207 1364
0 0 0 0 0 0 0 0 0 0 0 0 0 0 0 39 0 0 0 0 0 0 0 0 0 0 0 0 0 0 0 0 0 0 0 0 0 0 0 0 0 0 0 0 0 0 0 0 0 0 0 0 0 0 0 0 0 0 0 0 0 0 39 2 0 48 223 234 183 337 178 777 322 539 734 823 872 974 943 953 1058 1050 1014 1034 1011 964 1063 1094
0 0 0 0 0 0 0 0 434 136 0 0 0 0 0 0 0 0 0 0 0 0 0 0 0 0 0 0 0 0 0 0 0 0 0 0 0 0 0 0 0 0 0 0 0 0 162 26 78 10 0 0 0 0 0 0 0 0 0 0 0 0 0 0 2 344 346 470 312 408 151 683 304 810 757 746 1003 973 952 1042 924 906 886 971 1028 999 994 837
0 3 1 0 0 0 0 0 0 0 0 0 0 0 0 0 0 0 0 0 0 0 0 0 0 0 1 0 0 17 0 4 0 0 0 0 0 0 0 0 0 50 0 0 2 0 8 9 37 15 0 0 0 0 0 0 0 0 0 0 0 0 0 103 322 440 618 541 574 256 100 690 572 779 825 808 903 918 931 1011 897 907 885 852 864 1026 1035 965
0 0 2 4 0 0 0 0 0 0 0 0 0 0 0 0 0 0 0 0 0 0 0 0 0 0 0 0 0 2 0 0 25 0 0 0 0 0 0 0 0 153 566 196 340 3 39 0 90 12 0 0 0 0 0 0 0 0 0 0 0 46 245 213 67 396 70 694 354 311 580 524 695 674 721 835 817 996 918 792 836 854 946 965 925 961 1059 1036
0 0 0 0 0 0 0 0 0 0 0 0 0 0 0 0 0 0 0 0 0 0 0 0 0 0 4 14 22 3 12 0 19 4 0 5 0 0 0 0 0 55 778 405 209 218 127 31 51 129 142 7 0 0 0 0 0 0 0 0 0 0 4 48 665 330 22 590 408 522 814 724 561 674 767 846 813 749 772 841 900 910 942 942 972 1030 1112 1120
0 9 0 0 6 0 0 0 0 0 0 0 0 0 0 0 0 0 0 0 0 0 0 0 0 51 30 20 13 2 2 1 8 3 0 0 0 0 0 0 0 68 505 263 35 43 218 21 0 42 0 0 0 0 0 0 0 0 2 4 54 35 2 163 100 92 905 365 412 627 834 862 754 841 878 805 776 874 856 834 894 877 886 973 1096 1185 1222 1226
0 0 0 0 0 1 0 0 0 0 0 0 0 0 0 0 0 0 0 0 0 0 0 0 0 0 0 2 24 63 16 20 12 0 0 0 0 0 0 0 0 0 90 0 0 97 101 38 21 0 2 6 6 4 3 5 4 4 0 0 4 129 145 78 156 87 661 79 11 800 1027 1126 1015 877 934 822 873 961 938 886 916 857 990 1092 1086 1056 1110 1148
0 0 4 0 27 0 0 0 1 0 1 37 0 0 0 0 0 0 0 0 0 0 0 0 0 0 0 0 29 42 35 80 7 9 0 0 0 0 2 2 0 0 0 4 0 0 67 39 122 17 2 2 21 30 14 4 14 10 7 3 3 57 396 205 212 144 311 615 163 828 1217 1177 977 876 866 762 936 919 933 925 922 943 1055 1024 1050 1005 973 936
0 48 314 0 19 54 22 0 0 0 0 116 0 0 0 0 0 0 0 0 0 0 0 0 0 0 0 0 186 30 0 0 0 1 0 0 0 2 0 0 0 0 0 2 0 1 2 22 186 8 0 1 12 30 29 18 10 10 11 9 4 30 258 425 340 308 376 763 587 925 1067 895 904 817 830 806 1003 886 935 934 932 951 857 797 872 896 936 920
0 0 0 238 4 0 168 0 0 0 0 0 0 1 0 0 0 0 0 0 0 0 0 0 0 0 0 0 0 0 0 0 0 0 0 0 0 0 0 0 0 0 0 6 8 4 43 1 1 78 2 4 6 17 30 36 20 16 14 8 9 4 160 285 477 496 466 705 891 968 960 942 848 930 719 861 1003 918 952 972 990 937 862 865 837 812 748 720
0 0 0 0 32 0 0 0 0 0 0 0 0 87 0 0 0 0 0 0 0 0 0 0 0 0 0 0 0 0 0 0 0 0 0 0 0 0 0 0 0 0 0 0 0 6 1 73 54 92 144 5 6 12 21 25 24 10 12 10 36 48 17 114 316 559 581 672 817 871 1032 1156 880 826 684 740 971 993 950 959 911 856 754 692 594 506 444 504
Wind_Speed
nan nan nan nan nan nan nan nan nan nan nan nan nan nan nan nan nan nan nan nan nan nan nan nan nan nan nan nan nan nan nan nan nan nan nan nan nan nan nan nan nan nan nan nan nan nan nan nan nan 6 4 1 3 3 nan 10 9 11 9 9 17 16 14 13 11 11 12 4 3 3 4 3 3 1 1 2 2 4 6 8 7 5 10 14 13 6 1 1
nan nan nan nan nan nan nan nan nan nan nan nan nan nan nan nan nan nan nan nan nan nan nan nan nan nan nan nan nan nan nan nan nan nan nan nan nan nan nan nan nan nan nan nan nan nan nan nan 10 7 6 3 3 3 4 5 8 13 11 14 18 16 17 14 11 11 6 5 2 4 3 2 5 5 5 2 1 2 4 5 3 4 10 14 13 6 1 3
nan nan nan nan nan nan nan nan nan nan nan nan nan nan nan nan nan nan nan nan nan nan nan nan nan nan nan nan nan nan nan nan nan nan nan nan nan nan nan nan nan nan nan nan nan nan nan nan 10 9 6 5 3 3 4 5 9 12 12 12 14 16 18 15 9 8 12 3 2 2 1 3 6 2 3 3 4 1 1 1 2 1 8 11 10 4 2 4
nan nan nan nan nan nan nan nan nan nan nan nan nan nan nan nan nan nan nan nan nan nan nan nan nan nan nan nan nan nan nan nan nan nan nan nan nan nan nan nan nan nan nan nan nan nan nan nan 10 8 8 6 5 5 4 5 9 6 9 8 12 14 14 18 11 9 5 2 6 6 3 4 2 2 4 6 3 4 3 2 5 4 6 8 8 3 3 3
nan nan nan nan nan nan nan nan nan nan nan nan nan nan nan nan nan nan nan nan nan nan nan nan nan nan nan nan nan nan nan nan nan nan nan 29 nan nan nan nan nan nan nan nan nan nan nan nan nan 11 8 7 5 3 7 5 8 8 8 6 12 13 15 17 13 7 5 5 8 8 4 2 2 2 7 10 3 6 5 3 4 3 2 5 5 1 2 2
nan nan nan nan nan nan nan nan nan nan nan nan nan nan nan nan nan nan nan nan nan nan nan nan nan nan nan nan nan nan nan nan nan nan nan 30 nan nan nan 24 nan nan nan nan nan nan nan nan 13 11 9 8 4 3 7 6 5 7 5 6 9 16 15 17 14 10 7 7 7 6 5 4 1 2 6 5 5 2 2 1 2 1 1 3 4 3 2 2
nan nan nan nan nan nan nan nan nan nan nan nan nan nan nan nan nan nan nan nan nan nan nan nan nan nan nan nan nan nan nan nan nan nan 33 nan nan nan 30 nan nan nan nan nan nan nan nan nan 12 13 12 11 8 8 7 6 3 9 9 8 9 11 14 14 11 10 10 8 8 9 7 3 2 3 4 4 4 3 2 2 4 2 1 3 4 4 3 3
nan nan nan nan nan nan nan nan nan nan nan nan nan nan nan nan nan nan nan nan nan nan nan nan nan nan nan nan nan nan nan nan nan nan 30 nan nan 34 34 nan nan nan nan nan nan nan nan nan 15 18 13 11 nan nan nan 5 3 5 7 2 2 8 13 12 8 8 12 13 11 9 8 4 2 2 1 4 1 5 4 4 6 4 3 2 4 4 5 4
nan nan nan nan nan nan nan nan nan nan nan nan nan nan nan nan nan nan nan nan nan nan nan nan nan nan nan nan nan nan nan nan nan 29 nan nan nan nan nan nan nan nan nan nan nan nan nan nan 19 15 16 nan nan 12 nan 7 6 4 5 1 2 4 9 14 12 11 12 11 9 12 13 10 6 4 7 0 1 5 7 5 6 5 4 2 3 5 6 5
nan nan nan nan nan nan nan nan nan nan nan nan nan nan nan nan nan nan nan nan nan nan nan nan nan nan nan nan nan nan nan nan nan nan nan nan nan nan nan nan nan nan nan nan nan nan nan 18 18 18 20 nan nan nan nan nan 14 5 7 5 3 5 5 9 11 12 12 11 8 11 10 10 9 10 5 1 2 4 7 6 4 5 4 1 3 6 7 4
nan nan nan nan nan nan nan nan nan nan nan nan nan nan nan nan nan nan nan nan nan nan nan nan nan nan nan nan nan nan nan nan nan nan nan nan nan nan nan nan nan nan nan nan nan nan nan nan nan 20 nan nan nan nan nan nan 13 12 14 11 6 5 4 7 9 9 11 15 14 13 14 13 10 11 5 3 3 4 6 5 4 2 2 1 2 5 7 7
nan nan nan nan nan nan nan nan nan nan nan nan nan nan nan nan nan nan nan nan nan nan nan nan nan nan nan nan nan nan nan nan nan nan nan nan nan nan nan nan nan nan nan nan nan nan nan nan 20 nan nan nan nan nan nan 17 12 13 10 11 7 6 6 4 5 6 6 13 16 18 14 12 10 10 5 5 4 3 5 4 4 2 1 2 2 5 7 7
nan nan nan nan nan nan nan nan nan nan nan nan nan nan nan nan nan nan nan nan nan nan nan nan nan nan nan nan nan nan nan nan nan nan nan nan nan nan nan nan nan nan nan nan nan nan nan nan 24 nan nan nan nan nan nan nan 14 12 13 10 7 5 4 5 5 6 8 11 15 13 9 9 12 11 5 4 4 3 3 3 3 1 1 1 1 4 5 6
nan nan nan nan nan nan nan nan nan nan nan nan nan nan nan nan nan nan nan nan nan nan nan nan nan nan nan nan nan nan nan nan nan nan nan nan nan nan nan nan nan nan nan nan nan nan nan nan 32 27 nan nan nan nan nan nan 14 12 14 8 7 5 5 8 5 6 10 8 12 18 14 11 12 10 6 2 4 4 2 2 2 0 2 1 1 4 5 5
nan nan nan nan nan nan nan nan nan nan nan nan nan nan nan nan nan nan nan nan nan nan nan nan nan nan nan nan nan nan nan nan nan nan nan nan nan nan nan nan nan nan nan nan nan nan nan nan nan 26 nan nan nan nan nan 18 16 15 11 10 10 7 9 10 11 6 8 6 10 17 18 16 11 8 5 3 2 2 1 2 1 1 3 2 2 2 5 6
nan nan nan nan nan nan nan nan nan nan nan nan nan nan nan nan nan nan nan nan nan nan nan nan nan nan nan nan nan nan nan nan nan nan nan nan nan nan nan nan nan nan nan nan nan nan nan nan nan nan nan nan nan nan 20 20 17 15 15 11 9 10 10 9 10 8 11 8 7 14 17 16 16 9 6 2 2 1 1 1 1 2 3 4 3 3 5 6
nan nan nan nan nan nan nan nan nan nan nan nan nan nan nan nan nan nan nan nan nan nan nan nan nan nan nan nan nan nan nan nan nan nan nan nan nan nan nan nan nan nan nan nan nan nan nan nan nan nan nan nan nan nan 18 18 16 13 17 12 12 9 12 12 14 7 9 8 8 9 19 22 15 7 8 1 1 2 2 1 1 4 5 5 5 4 4 6
nan nan nan nan nan nan nan nan nan nan nan nan nan nan nan nan nan nan nan nan nan nan nan nan nan nan nan nan nan nan nan nan nan nan nan nan nan nan nan nan nan nan nan nan nan nan nan nan nan nan nan nan nan nan nan nan 14 14 16 16 14 13 10 15 10 8 8 6 7 7 21 20 11 8 8 2 1 1 2 1 0 3 4 5 6 5 4 6
nan nan nan nan nan nan nan nan nan nan nan nan nan nan nan nan nan nan nan nan nan nan nan nan nan nan nan nan nan nan nan nan nan nan nan nan nan nan nan nan nan nan nan nan nan nan nan nan nan nan nan nan nan nan nan nan 17 18 16 19 17 14 12 14 13 10 5 6 4 1 12 12 6 7 9 4 1 1 2 2 2 3 4 5 7 7 6 6
nan nan nan nan nan nan nan nan nan nan nan nan nan nan nan nan nan nan nan nan nan nan nan nan nan nan nan nan nan nan nan nan nan nan nan nan nan nan nan nan nan nan nan nan nan nan nan nan nan nan nan nan nan nan nan nan nan 16 17 17 17 18 18 18 13 10 6 7 5 2 6 6 3 4 8 9 4 2 0 1 2 2 3 5 6 7 6 5
nan nan nan nan nan nan nan nan nan nan nan nan nan nan nan nan nan nan nan nan nan nan nan nan nan nan nan nan nan nan nan nan nan nan nan nan nan nan nan nan nan nan nan nan nan nan nan nan nan nan nan nan nan nan nan nan nan 17 20 20 19 16 18 18 16 12 10 9 10 8 8 8 5 5 9 11 4 2 2 1 1 1 2 5 5 6 5 4
nan nan nan nan nan nan nan nan nan nan nan nan nan nan nan nan nan nan nan nan nan nan nan nan nan nan nan nan nan nan nan nan nan nan nan nan nan nan nan nan nan nan nan nan nan nan nan nan nan nan nan nan nan nan nan nan nan nan 20 21 nan 19 26 23 19 15 14 12 12 9 7 9 6 6 11 9 4 4 3 1 2 0 1 4 4 4 4 4
nan nan nan nan nan nan nan nan nan nan nan nan nan nan nan nan nan nan nan nan nan nan nan nan nan nan nan nan nan nan nan nan nan nan nan nan nan nan nan nan nan nan nan nan nan nan nan nan nan nan nan nan nan nan nan nan nan nan nan nan nan 17 18 20 17 17 16 14 12 9 7 10 10 8 9 11 9 12 17 8 4 4 2 3 3 4 5 4
nan nan nan nan nan nan nan nan nan nan nan nan nan nan nan nan nan nan nan nan nan nan nan nan nan nan nan nan nan nan nan nan nan nan nan nan nan nan nan nan nan nan nan nan nan nan nan nan nan nan nan nan nan nan nan nan nan nan nan nan 22 16 20 20 17 17 16 17 13 11 11 13 9 6 7 7 8 11 13 14 10 7 5 4 4 6 7 6
nan nan nan nan nan nan nan nan nan nan nan nan nan nan nan nan nan nan nan nan nan nan nan nan nan nan nan nan nan nan nan nan nan nan nan nan nan nan nan nan nan nan nan nan nan nan nan nan nan nan nan nan nan nan nan nan nan nan nan nan 22 18 22 24 22 20 15 13 11 8 12 10 10 6 2 5 7 6 10 10 8 6 4 4 3 4 6 7
nan nan nan nan nan nan nan nan nan nan nan nan nan nan nan nan nan nan nan nan nan nan nan nan nan nan nan nan nan nan nan nan nan nan nan nan nan nan nan nan nan nan nan nan nan nan nan nan nan nan nan nan nan nan nan nan nan nan nan nan nan 19 23 23 20 18 15 13 11 9 11 15 15 8 5 5 3 4 9 9 8 7 4 2 4 5 5 5
nan nan nan nan nan nan nan nan nan nan nan nan nan nan nan nan nan nan nan nan nan nan nan nan nan nan nan nan nan nan nan nan nan nan nan nan nan nan nan nan nan nan nan nan nan nan nan nan nan nan nan nan nan nan nan nan nan nan nan nan nan 22 23 20 20 17 22 26 24 14 17 17 15 10 7 7 4 4 4 5 6 5 3 3 2 3 4 4
nan nan nan nan nan nan nan nan nan nan nan nan nan nan nan nan nan nan nan nan nan nan nan nan nan nan nan nan nan nan nan nan nan nan nan nan nan nan nan nan nan nan nan nan nan nan nan nan nan nan nan nan nan nan nan nan nan nan nan nan 31 27 24 22 21 21 24 23 22 14 16 16 15 19 11 9 7 3 1 0 2 4 4 5 5 2 2 3
nan nan nan nan nan nan nan nan nan nan nan nan nan nan nan nan nan nan nan nan nan nan nan nan nan nan nan nan nan nan nan nan nan nan nan nan nan nan nan nan nan nan nan nan nan nan nan nan nan nan nan nan nan nan nan nan nan nan nan 34 nan nan 30 26 26 25 25 23 18 13 13 17 17 16 10 7 3 2 2 1 2 5 5 7 6 5 3 nan
nan nan nan nan nan nan nan nan nan nan nan nan nan nan nan nan nan nan nan nan nan nan nan nan nan nan nan nan nan nan nan nan nan nan nan nan nan nan nan nan nan nan nan nan nan nan nan nan nan nan nan nan nan nan nan nan nan nan nan 39 42 40 36 33 33 29 30 23 19 17 14 20 22 15 8 8 6 6 8 10 8 7 7 8 8 7 6 nan
nan nan nan nan nan nan nan nan nan nan nan nan nan nan nan nan nan nan nan nan nan nan nan nan nan nan nan nan nan nan nan nan nan nan nan nan nan nan nan nan nan nan nan nan nan nan nan nan nan nan nan nan nan nan nan nan nan nan nan 39 44 45 40 33 34 39 31 25 29 25 18 19 20 23 16 12 20 11 7 5 7 8 7 8 9 10 8 8
nan nan nan nan nan nan nan nan nan nan nan nan nan nan nan nan nan nan nan nan nan nan nan nan nan nan nan nan nan nan nan nan nan nan nan nan nan nan nan nan nan nan nan nan nan nan nan nan nan nan nan nan nan nan nan nan nan nan nan nan nan 42 40 32 35 32 nan 28 nan 28 24 22 17 23 27 17 12 18 9 9 11 13 12 12 12 13 13 11
nan nan nan nan nan nan nan nan nan nan nan nan nan nan nan nan nan nan nan nan nan nan nan nan nan nan nan nan nan nan nan nan nan nan nan nan nan nan nan nan nan nan nan nan nan nan nan nan nan nan nan nan nan nan nan nan nan nan nan nan nan 38 36 34 34 nan nan nan nan 30 24 20 27 24 27 24 18 15 17 12 13 14 13 14 16 16 17 14
nan nan nan nan nan nan nan nan nan nan nan nan nan nan nan nan nan 4 nan nan nan nan nan nan nan nan nan nan nan nan nan nan nan nan nan nan nan nan nan nan nan nan nan nan nan nan nan nan nan nan nan nan nan nan nan nan nan nan nan 32 nan 34 nan nan 34 nan nan 31 34 33 31 27 20 25 25 25 24 23 17 15 13 10 7 10 14 19 20 17
nan nan nan nan nan nan nan nan nan nan nan nan nan nan nan nan nan nan nan nan nan nan nan nan nan nan nan nan nan nan nan nan nan nan nan nan nan nan nan nan nan nan nan nan nan nan nan nan nan nan nan nan nan nan nan nan nan nan nan nan nan nan 38 nan 34 30 29 31 33 31 32 31 23 23 23 23 24 22 19 14 15 11 9 11 15 14 16 17
nan nan nan nan nan nan nan nan nan nan nan nan nan nan nan nan nan nan nan nan nan nan nan nan nan nan nan nan nan nan nan nan nan nan nan nan nan nan nan nan nan nan nan nan nan nan nan nan nan nan nan nan nan nan nan nan nan nan nan nan nan 42 39 43 39 38 38 35 32 36 32 28 25 21 23 24 25 24 20 15 15 15 14 16 13 12 14 15
nan nan nan nan nan nan nan nan nan nan nan nan nan nan nan nan nan nan nan nan nan nan nan nan nan nan nan nan nan nan nan nan nan nan nan nan nan nan nan nan nan nan nan nan nan nan nan nan nan nan nan nan nan nan nan nan nan nan nan nan nan nan nan nan 34 37 32 31 36 35 27 27 28 25 27 26 26 25 22 17 15 17 16 14 13 14 16 18
nan nan 7 nan nan nan nan nan nan nan nan nan nan 4 nan nan nan nan nan nan nan nan nan nan nan nan nan nan nan nan nan nan nan nan nan nan nan nan nan nan nan nan nan nan nan nan nan nan nan nan nan nan nan nan nan nan nan nan nan nan nan nan nan nan 38 35 34 34 37 35 33 29 26 25 25 21 24 25 22 19 17 14 13 13 15 18 21 24
nan nan nan nan nan nan nan nan nan nan nan nan nan 2 nan nan nan nan nan nan nan nan nan nan nan nan nan nan nan nan nan nan nan nan nan nan nan nan nan nan nan nan nan nan nan nan nan nan nan nan nan nan nan nan nan nan nan nan nan nan nan nan nan 37 nan 42 nan 36 36 35 33 28 24 25 22 23 24 24 23 19 15 15 14 15 19 20 21 23
nan nan nan nan nan nan nan nan nan nan nan nan nan nan nan nan nan nan nan nan nan nan nan nan nan nan nan nan nan nan nan nan nan nan nan nan nan nan nan nan nan nan nan nan nan nan nan nan nan nan nan nan nan nan nan nan nan nan nan nan nan nan nan nan nan 41 nan 36 33 35 33 28 29 30 27 25 24 23 22 22 19 17 18 21 22 22 22 22
nan nan nan nan nan nan nan nan nan nan nan nan nan nan nan nan nan nan nan nan nan nan nan nan nan nan nan nan nan nan nan nan nan nan nan nan nan nan nan nan nan nan nan nan nan nan nan nan nan nan nan nan nan nan nan nan nan nan nan nan nan nan nan nan nan nan 42 38 39 33 27 34 32 28 27 25 26 24 23 25 23 20 18 17 19 20 20 22
nan nan nan nan nan nan nan nan nan nan nan nan nan nan nan nan nan nan nan nan nan nan nan nan nan nan nan nan nan nan nan nan nan nan nan nan nan nan nan nan nan nan nan nan nan nan nan nan nan nan nan nan nan nan nan nan nan nan nan nan nan nan nan nan nan nan 42 43 44 41 34 33 32 29 26 26 28 28 24 24 24 22 21 20 20 21 21 21
nan nan nan nan nan nan nan nan 3 3 nan nan nan nan nan nan nan nan nan nan nan nan nan nan nan nan nan nan nan nan nan nan nan nan nan nan nan nan nan nan nan nan nan nan nan nan 28 nan nan nan nan nan nan nan nan nan nan nan nan nan nan nan nan nan nan 43 39 44 40 41 34 36 31 29 27 28 32 34 29 26 26 26 24 22 21 21 22 22
nan nan nan nan nan nan nan nan nan nan nan nan nan nan nan nan nan nan nan nan nan nan nan nan nan nan nan nan nan nan nan nan nan nan nan nan nan nan nan nan nan nan nan nan nan nan nan nan nan nan nan nan nan nan nan nan nan nan nan nan nan nan nan 47 50 45 41 41 40 37 nan 37 32 27 30 29 31 33 31 27 25 25 23 22 22 22 23 23
nan nan nan nan nan nan nan nan nan nan nan nan nan nan nan nan nan nan nan nan nan nan nan nan nan nan nan nan nan nan nan nan nan nan nan nan nan nan nan nan nan 16 17 22 23 nan nan nan nan nan nan nan nan nan nan nan nan nan nan nan nan nan 44 40 nan 44 nan 47 43 38 40 41 35 29 28 28 28 29 28 25 25 23 22 21 22 24 23 22
nan nan nan nan nan nan nan nan nan nan nan nan nan nan nan nan nan nan nan nan nan nan nan nan nan nan nan nan nan nan nan nan nan nan nan nan nan nan nan nan nan nan 20 22 27 23 26 nan nan 28 30 nan nan nan nan nan nan nan nan nan nan nan nan nan 46 43 nan 45 40 43 43 40 34 27 28 28 29 29 29 25 24 25 25 24 23 23 23 23
nan nan nan nan nan nan nan nan nan nan nan nan nan nan nan nan nan nan nan nan nan nan nan nan nan nan nan nan nan nan nan nan nan nan nan nan nan nan nan nan nan nan 24 18 nan nan 25 nan nan nan nan nan nan nan nan nan nan nan nan nan nan nan nan 43 nan nan 48 47 39 46 42 41 33 30 28 29 29 30 30 29 30 30 28 27 28 27 27 26
nan nan nan nan nan nan nan nan nan nan nan nan nan nan nan nan nan nan nan nan nan nan nan nan nan nan nan nan nan nan nan nan nan nan nan nan nan nan nan nan nan nan nan nan nan nan 25 nan nan nan nan nan nan nan nan nan nan nan nan nan nan 46 44 nan 46 nan 40 nan nan 42 39 36 36 32 33 32 31 30 30 30 33 34 33 32 32 31 29 29
nan nan nan nan nan nan nan nan nan nan nan nan nan nan nan nan nan nan nan nan nan nan nan nan nan nan nan nan nan nan nan nan nan nan nan nan nan nan nan nan nan nan nan nan nan nan nan nan 27 nan nan nan nan nan nan nan nan nan nan nan nan nan 45 42 43 46 47 48 46 42 39 38 40 37 36 36 34 33 32 32 32 33 33 32 32 32 31 31
nan nan 9 nan nan nan nan nan nan nan nan 10 nan nan nan nan nan nan nan nan nan nan nan nan nan nan nan nan 11 nan nan nan nan nan nan nan nan nan nan nan nan nan nan nan nan nan nan nan 29 nan nan nan nan nan nan nan nan nan nan nan nan nan 44 43 41 42 43 46 48 45 43 42 40 39 39 40 37 34 33 32 31 30 30 29 29 29 29 30
nan nan nan 8 nan nan 9 nan nan nan nan nan nan nan nan nan nan nan nan nan nan nan nan nan nan nan nan nan nan nan nan nan nan nan nan nan nan nan nan nan nan nan nan nan nan nan nan nan nan nan nan nan nan nan nan nan nan nan nan nan nan nan 44 43 41 42 39 42 43 45 42 39 39 40 39 39 37 33 32 31 30 29 28 27 27 28 29 29
nan nan nan nan nan nan nan nan nan nan nan nan nan nan nan nan nan nan nan nan nan nan nan nan nan nan nan nan nan nan nan nan nan nan nan nan nan nan nan nan nan nan nan nan nan nan nan nan nan nan 30 nan nan nan nan nan nan nan nan nan nan nan nan 39 38 40 39 39 38 37 43 46 41 41 40 37 36 34 32 30 28 26 26 26 27 30 30 30
Wind_Direction
nan nan nan nan nan nan nan nan nan nan nan nan nan nan nan nan nan nan nan nan nan nan nan nan nan nan nan nan nan nan nan nan nan nan nan nan nan nan nan nan nan nan nan nan nan nan nan nan nan 267 246 205 219 74 nan 44 36 35 46 161 159 157 149 148 139 142 171 157 148 110 135 299 294 82 345 273 222 231 192 179 185 200 224 245 251 235 154 30
nan nan nan nan nan nan nan nan nan nan nan nan nan nan nan nan nan nan nan nan nan nan nan nan nan nan nan nan nan nan nan nan nan nan nan nan nan nan nan nan nan nan nan nan nan nan nan nan 270 283 263 229 190 127 55 54 44 52 71 138 146 143 160 141 150 159 160 171 149 153 127 322 314 333 53 50 22 251 208 171 185 241 246 258 264 245 100 38
nan nan nan nan nan nan nan nan nan nan nan nan nan nan nan nan nan nan nan nan nan nan nan nan nan nan nan nan nan nan nan nan nan nan nan nan nan nan nan nan nan nan nan nan nan nan nan nan 284 281 245 224 186 141 96 62 63 59 80 128 139 148 156 148 138 150 155 238 269 183 163 311 331 342 50 21 19 62 302 139 149 318 288 290 286 285 49 50
nan nan nan nan nan nan nan nan nan nan nan nan nan nan nan nan nan nan nan nan nan nan nan nan nan nan nan nan nan nan nan nan nan nan nan nan nan nan nan nan nan nan nan nan nan nan nan nan 271 253 241 209 211 154 104 68 75 74 79 121 145 150 154 159 146 156 177 216 240 209 235 273 350 314 20 345 347 102 122 39 28 26 324 308 296 296 65 63
nan nan nan nan nan nan nan nan nan nan nan nan nan nan nan nan nan nan nan nan nan nan nan nan nan nan nan nan nan nan nan nan nan nan nan 222 nan nan nan nan nan nan nan nan nan nan nan nan nan 234 218 219 207 182 118 85 86 103 103 136 149 148 160 166 156 168 182 191 230 230 295 262 240 321 2 7 28 84 90 83 66 25 348 317 300 281 113 65
nan nan nan nan nan nan nan nan nan nan nan nan nan nan nan nan nan nan nan nan nan nan nan nan nan nan nan nan nan nan nan nan nan nan nan 234 nan nan nan 247 nan nan nan nan nan nan nan nan 258 243 225 211 210 171 193 106 83 129 143 131 167 164 171 175 170 174 196 195 227 273 255 257 25 359 21 80 145 192 155 73 29 41 298 215 211 190 123 86
nan nan nan nan nan nan nan nan nan nan nan nan nan nan nan nan nan nan nan nan nan nan nan nan nan nan nan nan nan nan nan nan nan nan 221 nan nan nan 244 nan nan nan nan nan nan nan nan nan 229 242 230 211 198 163 155 154 99 129 164 189 209 187 194 174 183 185 191 212 208 225 266 265 330 342 71 137 152 276 279 315 321 333 257 238 215 155 126 114
nan nan nan nan nan nan nan nan nan nan nan nan nan nan nan nan nan nan nan nan nan nan nan nan nan nan nan nan nan nan nan nan nan nan 237 nan nan 249 245 nan nan nan nan nan nan nan nan nan 239 237 221 208 nan nan nan 155 149 126 141 214 28 216 189 194 218 209 211 209 211 231 242 223 133 215 74 160 29 291 288 308 316 329 322 257 199 164 143 146
nan nan nan nan nan nan nan nan nan nan nan nan nan nan nan nan nan nan nan nan nan nan nan nan nan nan nan nan nan nan nan nan nan 217 nan nan nan nan nan nan nan nan nan nan nan nan nan nan 236 233 215 nan nan 182 nan 177 181 111 177 207 23 261 207 197 219 227 223 206 219 230 216 193 190 240 193 228 346 300 297 302 313 329 346 310 204 174 153 141
nan nan nan nan nan nan nan nan nan nan nan nan nan nan nan nan nan nan nan nan nan nan nan nan nan nan nan nan nan nan nan nan nan nan nan nan nan nan nan nan nan nan nan nan nan nan nan 231 231 225 215 nan nan nan nan nan 200 217 244 249 251 294 264 211 224 226 225 226 224 238 219 197 158 133 178 223 316 301 299 301 314 334 352 321 196 173 154 143
nan nan nan nan nan nan nan nan nan nan nan nan nan nan nan nan nan nan nan nan nan nan nan nan nan nan nan nan nan nan nan nan nan nan nan nan nan nan nan nan nan nan nan nan nan nan nan nan nan 224 nan nan nan nan nan nan 231 246 254 248 238 248 261 247 228 237 232 211 205 235 213 198 181 164 183 315 335 326 296 305 327 333 342 293 217 174 160 153
nan nan nan nan nan nan nan nan nan nan nan nan nan nan nan nan nan nan nan nan nan nan nan nan nan nan nan nan nan nan nan nan nan nan nan nan nan nan nan nan nan nan nan nan nan nan nan nan 220 nan nan nan nan nan nan 208 240 255 246 228 233 258 263 267 225 213 214 221 220 213 219 203 183 190 219 303 330 349 307 317 328 326 320 309 227 178 163 150
nan nan nan nan nan nan nan nan nan nan nan nan nan nan nan nan nan nan nan nan nan nan nan nan nan nan nan nan nan nan nan nan nan nan nan nan nan nan nan nan nan nan nan nan nan nan nan nan 214 nan nan nan nan nan nan nan 232 239 208 236 249 238 255 232 203 208 234 237 234 195 183 182 196 201 211 294 313 342 316 333 330 218 145 299 227 173 160 143
nan nan nan nan nan nan nan nan nan nan nan nan nan nan nan nan nan nan nan nan nan nan nan nan nan nan nan nan nan nan nan nan nan nan nan nan nan nan nan nan nan nan nan nan nan nan nan nan 212 217 nan nan nan nan nan nan 233 223 230 204 209 238 238 232 228 257 245 252 231 190 189 190 200 208 212 249 309 325 8 20 354 245 134 151 181 171 149 127
nan nan nan nan nan nan nan nan nan nan nan nan nan nan nan nan nan nan nan nan nan nan nan nan nan nan nan nan nan nan nan nan nan nan nan nan nan nan nan nan nan nan nan nan nan nan nan nan nan 220 nan nan nan nan nan 221 220 229 230 215 210 203 238 240 223 216 247 274 212 191 189 188 194 207 204 223 294 298 319 64 60 158 149 161 181 150 133 127
nan nan nan nan nan nan nan nan nan nan nan nan nan nan nan nan nan nan nan nan nan nan nan nan nan nan nan nan nan nan nan nan nan nan nan nan nan nan nan nan nan nan nan nan nan nan nan nan nan nan nan nan nan nan 226 222 217 219 204 228 231 216 235 239 241 214 226 277 227 193 206 203 190 199 202 221 300 276 266 67 124 153 152 173 168 143 136 134
nan nan nan nan nan nan nan nan nan nan nan nan nan nan nan nan nan nan nan nan nan nan nan nan nan nan nan nan nan nan nan nan nan nan nan nan nan nan nan nan nan nan nan nan nan nan nan nan nan nan nan nan nan nan 234 212 219 224 212 215 225 230 238 233 238 246 252 285 291 240 206 189 192 218 211 229 293 279 226 38 144 164 159 170 165 154 150 139
nan nan nan nan nan nan nan nan nan nan nan nan nan nan nan nan nan nan nan nan nan nan nan nan nan nan nan nan nan nan nan nan nan nan nan nan nan nan nan nan nan nan nan nan nan nan nan nan nan nan nan nan nan nan nan nan 215 230 226 221 220 219 228 226 242 258 266 279 324 253 184 178 195 220 223 250 98 243 260 229 186 166 154 160 160 167 167 151
nan nan nan nan nan nan nan nan nan nan nan nan nan nan nan nan nan nan nan nan nan nan nan nan nan nan nan nan nan nan nan nan nan nan nan nan nan nan nan nan nan nan nan nan nan nan nan nan nan nan nan nan nan nan nan nan 213 225 223 212 219 219 221 220 231 245 295 279 293 338 160 173 204 218 227 236 81 163 236 231 195 174 152 149 162 179 183 159
nan nan nan nan nan nan nan nan nan nan nan nan nan nan nan nan nan nan nan nan nan nan nan nan nan nan nan nan nan nan nan nan nan nan nan nan nan nan nan nan nan nan nan nan nan nan nan nan nan nan nan nan nan nan nan nan nan 219 231 226 215 221 223 220 229 244 267 245 220 227 185 184 211 230 232 226 221 128 167 250 172 166 158 150 160 182 196 172
nan nan nan nan nan nan nan nan nan nan nan nan nan nan nan nan nan nan nan nan nan nan nan nan nan nan nan nan nan nan nan nan nan nan nan nan nan nan nan nan nan nan nan nan nan nan nan nan nan nan nan nan nan nan nan nan nan 215 226 225 219 218 220 226 228 247 247 206 217 210 219 214 227 239 230 222 242 58 41 8 103 66 152 166 158 173 195 178
nan nan nan nan nan nan nan nan nan nan nan nan nan nan nan nan nan nan nan nan nan nan nan nan nan nan nan nan nan nan nan nan nan nan nan nan nan nan nan nan nan nan nan nan nan nan nan nan nan nan nan nan nan nan nan nan nan nan 213 226 nan 219 227 225 229 251 239 210 212 215 214 214 228 250 230 219 209 183 151 160 129 22 158 179 166 153 173 178
nan nan nan nan nan nan nan nan nan nan nan nan nan nan nan nan nan nan nan nan nan nan nan nan nan nan nan nan nan nan nan nan nan nan nan nan nan nan nan nan nan nan nan nan nan nan nan nan nan nan nan nan nan nan nan nan nan nan nan nan nan 233 231 225 227 232 221 218 221 229 215 212 221 238 230 201 198 205 199 193 169 171 182 166 157 149 145 155
nan nan nan nan nan nan nan nan nan nan nan nan nan nan nan nan nan nan nan nan nan nan nan nan nan nan nan nan nan nan nan nan nan nan nan nan nan nan nan nan nan nan nan nan nan nan nan nan nan nan nan nan nan nan nan nan nan nan nan nan 218 232 215 225 238 236 232 211 218 240 229 215 204 211 195 188 203 213 211 209 203 196 179 185 181 150 147 155
nan nan nan nan nan nan nan nan nan nan nan nan nan nan nan nan nan nan nan nan nan nan nan nan nan nan nan nan nan nan nan nan nan nan nan nan nan nan nan nan nan nan nan nan nan nan nan nan nan nan nan nan nan nan nan nan nan nan nan nan 219 229 229 233 252 252 236 220 217 235 220 211 222 181 176 208 213 222 221 215 212 217 210 199 152 137 168 169
nan nan nan nan nan nan nan nan nan nan nan nan nan nan nan nan nan nan nan nan nan nan nan nan nan nan nan nan nan nan nan nan nan nan nan nan nan nan nan nan nan nan nan nan nan nan nan nan nan nan nan nan nan nan nan nan nan nan nan nan nan 228 234 249 256 246 234 224 228 200 197 216 226 212 207 236 263 265 234 208 212 221 225 198 165 171 187 194
nan nan nan nan nan nan nan nan nan nan nan nan nan nan nan nan nan nan nan nan nan nan nan nan nan nan nan nan nan nan nan nan nan nan nan nan nan nan nan nan nan nan nan nan nan nan nan nan nan nan nan nan nan nan nan nan nan nan nan nan nan 228 235 247 251 224 220 220 231 220 205 200 211 216 225 243 257 274 246 217 207 219 235 231 188 178 185 199
nan nan nan nan nan nan nan nan nan nan nan nan nan nan nan nan nan nan nan nan nan nan nan nan nan nan nan nan nan nan nan nan nan nan nan nan nan nan nan nan nan nan nan nan nan nan nan nan nan nan nan nan nan nan nan nan nan nan nan nan 230 219 223 235 231 223 223 228 224 214 207 200 205 227 247 255 254 274 7 293 219 226 242 237 231 218 181 166
nan nan nan nan nan nan nan nan nan nan nan nan nan nan nan nan nan nan nan nan nan nan nan nan nan nan nan nan nan nan nan nan nan nan nan nan nan nan nan nan nan nan nan nan nan nan nan nan nan nan nan nan nan nan nan nan nan nan nan 222 nan nan 214 218 216 222 226 218 216 218 217 196 208 231 239 261 244 349 31 293 227 230 248 240 229 228 206 nan
nan nan nan nan nan nan nan nan nan nan nan nan nan nan nan nan nan nan nan nan nan nan nan nan nan nan nan nan nan nan nan nan nan nan nan nan nan nan nan nan nan nan nan nan nan nan nan nan nan nan nan nan nan nan nan nan nan nan nan 226 227 227 225 216 214 216 223 214 206 228 227 201 201 224 241 253 190 187 214 208 211 226 244 240 226 229 220 nan
nan nan nan nan nan nan nan nan nan nan nan nan nan nan nan nan nan nan nan nan nan nan nan nan nan nan nan nan nan nan nan nan nan nan nan nan nan nan nan nan nan nan nan nan nan nan nan nan nan nan nan nan nan nan nan nan nan nan nan 224 228 222 226 219 214 213 218 211 216 225 233 212 200 218 219 224 217 212 227 227 235 244 252 245 227 223 224 205
nan nan nan nan nan nan nan nan nan nan nan nan nan nan nan nan nan nan nan nan nan nan nan nan nan nan nan nan nan nan nan nan nan nan nan nan nan nan nan nan nan nan nan nan nan nan nan nan nan nan nan nan nan nan nan nan nan nan nan nan nan 224 223 222 218 220 nan 212 nan 218 239 215 190 202 220 220 202 214 220 219 234 240 237 236 228 227 228 220
nan nan nan nan nan nan nan nan nan nan nan nan nan nan nan nan nan nan nan nan nan nan nan nan nan nan nan nan nan nan nan nan nan nan nan nan nan nan nan nan nan nan nan nan nan nan nan nan nan nan nan nan nan nan nan nan nan nan nan nan nan 228 226 224 225 nan nan nan nan 226 239 207 208 209 225 218 217 217 211 213 237 241 233 230 227 227 230 231
nan nan nan nan nan nan nan nan nan nan nan nan nan nan nan nan nan 36 nan nan nan nan nan nan nan nan nan nan nan nan nan nan nan nan nan nan nan nan nan nan nan nan nan nan nan nan nan nan nan nan nan nan nan nan nan nan nan nan nan 219 nan 230 nan nan 231 nan nan 226 228 235 239 222 217 224 220 216 214 215 214 205 212 225 227 235 232 229 230 233
nan nan nan nan nan nan nan nan nan nan nan nan nan nan nan nan nan nan nan nan nan nan nan nan nan nan nan nan nan nan nan nan nan nan nan nan nan nan nan nan nan nan nan nan nan nan nan nan nan nan nan nan nan nan nan nan nan nan nan nan nan nan 227 nan 233 235 239 237 236 240 231 227 217 221 220 220 221 220 226 217 210 227 253 265 250 247 237 234
nan nan nan nan nan nan nan nan nan nan nan nan nan nan nan nan nan nan nan nan nan nan nan nan nan nan nan nan nan nan nan nan nan nan nan nan nan nan nan nan nan nan nan nan nan nan nan nan nan nan nan nan nan nan nan nan nan nan nan nan nan 220 228 228 228 224 229 231 232 236 229 229 218 219 226 229 231 227 228 237 232 243 264 277 277 266 256 250
nan nan nan nan nan nan nan nan nan nan nan nan nan nan nan nan nan nan nan nan nan nan nan nan nan nan nan nan nan nan nan nan nan nan nan nan nan nan nan nan nan nan nan nan nan nan nan nan nan nan nan nan nan nan nan nan nan nan nan nan nan nan nan nan 228 232 230 230 233 235 232 228 224 217 230 232 236 236 238 242 247 251 263 269 258 255 255 252
nan nan 297 nan nan nan nan nan nan nan nan nan nan 11 nan nan nan nan nan nan nan nan nan nan nan nan nan nan nan nan nan nan nan nan nan nan nan nan nan nan nan nan nan nan nan nan nan nan nan nan nan nan nan nan nan nan nan nan nan nan nan nan nan nan 226 231 234 232 234 231 226 220 223 218 226 233 240 242 242 241 241 253 258 258 245 244 246 247
nan nan nan nan nan nan nan nan nan nan nan nan nan 0 nan nan nan nan nan nan nan nan nan nan nan nan nan nan nan nan nan nan nan nan nan nan nan nan nan nan nan nan nan nan nan nan nan nan nan nan nan nan nan nan nan nan nan nan nan nan nan nan nan 232 nan 228 nan 232 236 237 236 227 233 218 224 236 243 243 244 243 236 239 244 239 237 239 242 247
nan nan nan nan nan nan nan nan nan nan nan nan nan nan nan nan nan nan nan nan nan nan nan nan nan nan nan nan nan nan nan nan nan nan nan nan nan nan nan nan nan nan nan nan nan nan nan nan nan nan nan nan nan nan nan nan nan nan nan nan nan nan nan nan nan 228 nan 236 237 238 236 230 228 220 216 233 242 243 245 245 236 234 236 236 237 238 237 240
nan nan nan nan nan nan nan nan nan nan nan nan nan nan nan nan nan nan nan nan nan nan nan nan nan nan nan nan nan nan nan nan nan nan nan nan nan nan nan nan nan nan nan nan nan nan nan nan nan nan nan nan nan nan nan nan nan nan nan nan nan nan nan nan nan nan 229 235 237 243 237 234 229 221 219 231 241 241 241 245 241 237 241 246 242 241 239 236
nan nan nan nan nan nan nan nan nan nan nan nan nan nan nan nan nan nan nan nan nan nan nan nan nan nan nan nan nan nan nan nan nan nan nan nan nan nan nan nan nan nan nan nan nan nan nan nan nan nan nan nan nan nan nan nan nan nan nan nan nan nan nan nan nan nan 234 234 233 233 233 233 224 224 226 232 240 241 239 243 241 241 241 240 240 240 236 237
nan nan nan nan nan nan nan nan 272 249 nan nan nan nan nan nan nan nan nan nan nan nan nan nan nan nan nan nan nan nan nan nan nan nan nan nan nan nan nan nan nan nan nan nan nan nan 213 nan nan nan nan nan nan nan nan nan nan nan nan nan nan nan nan nan nan 238 239 242 240 241 239 236 229 227 230 234 234 234 234 235 238 239 237 239 243 240 240 239
nan nan nan nan nan nan nan nan nan nan nan nan nan nan nan nan nan nan nan nan nan nan nan nan nan nan nan nan nan nan nan nan nan nan nan nan nan nan nan nan nan nan nan nan nan nan nan nan nan nan nan nan nan nan nan nan nan nan nan nan nan nan nan 225 229 229 233 240 235 246 nan 240 236 229 230 239 236 231 229 228 233 237 236 240 244 240 237 240
nan nan nan nan nan nan nan nan nan nan nan nan nan nan nan nan nan nan nan nan nan nan nan nan nan nan nan nan nan nan nan nan nan nan nan nan nan nan nan nan nan 222 216 215 211 nan nan nan nan nan nan nan nan nan nan nan nan nan nan nan nan nan 222 225 nan 231 nan 235 234 238 238 238 242 231 232 241 244 236 228 224 225 232 238 240 241 242 243 246
nan nan nan nan nan nan nan nan nan nan nan nan nan nan nan nan nan nan nan nan nan nan nan nan nan nan nan nan nan nan nan nan nan nan nan nan nan nan nan nan nan nan 217 227 218 216 219 nan nan 208 211 nan nan nan nan nan nan nan nan nan nan nan nan nan 223 231 nan 239 240 238 237 250 250 243 241 246 250 252 249 241 234 232 236 239 243 245 248 250
nan nan nan nan nan nan nan nan nan nan nan nan nan nan nan nan nan nan nan nan nan nan nan nan nan nan nan nan nan nan nan nan nan nan nan nan nan nan nan nan nan nan 203 221 nan nan 220 nan nan nan nan nan nan nan nan nan nan nan nan nan nan nan nan 217 nan nan 237 240 235 240 246 253 256 259 255 254 254 252 252 254 248 241 242 249 253 254 256 256
nan nan nan nan nan nan nan nan nan nan nan nan nan nan nan nan nan nan nan nan nan nan nan nan nan nan nan nan nan nan nan nan nan nan nan nan nan nan nan nan nan nan nan nan nan nan 219 nan nan nan nan nan nan nan nan nan nan nan nan nan nan 216 219 nan 221 nan 235 nan nan 247 254 252 255 263 261 257 258 255 252 254 255 253 251 252 257 262 263 262
nan nan nan nan nan nan nan nan nan nan nan nan nan nan nan nan nan nan nan nan nan nan nan nan nan nan nan nan nan nan nan nan nan nan nan nan nan nan nan nan nan nan nan nan nan nan nan nan 215 nan nan nan nan nan nan nan nan nan nan nan nan nan 223 223 222 225 224 227 230 247 253 247 249 257 259 257 257 260 254 251 254 257 258 259 262 264 265 263
nan nan 300 nan nan nan nan nan nan nan nan 204 nan nan nan nan nan nan nan nan nan nan nan nan nan nan nan nan 238 nan nan nan nan nan nan nan nan nan nan nan nan nan nan nan nan nan nan nan 215 nan nan nan nan nan nan nan nan nan nan nan nan nan 226 229 231 230 227 231 232 247 249 246 246 255 259 258 259 261 261 260 259 261 265 267 267 267 265 263
nan nan nan 290 nan nan 212 nan nan nan nan nan nan nan nan nan nan nan nan nan nan nan nan nan nan nan nan nan nan nan nan nan nan nan nan nan nan nan nan nan nan nan nan nan nan nan nan nan nan nan nan nan nan nan nan nan nan nan nan nan nan nan 223 225 228 232 231 233 238 244 245 245 252 259 260 263 263 266 269 267 265 264 268 269 269 267 265 262
nan nan nan nan nan nan nan nan nan nan nan nan nan nan nan nan nan nan nan nan nan nan nan nan nan nan nan nan nan nan nan nan nan nan nan nan nan nan nan nan nan nan nan nan nan nan nan nan nan nan 226 nan nan nan nan nan nan nan nan nan nan nan nan 222 229 231 231 242 244 242 237 237 257 260 263 263 264 262 264 266 266 266 265 265 266 265 262 261